Regional Weather Roundup
Issued by NWS Bismarck, ND

Home | Current Version | Previous Version | Text Only | Print | Product List | Glossary On
Versions: 1 2 3 4 5 6 7 8 9 10 11 12 13 14 15 16 17 18 19 20 21 22 23 24 25 26 27 28 29 30 31 32 33 34 35 36 37 38 39 40 41 42 43 44 45 46 47 48 49 50
000
ASUS43 KBIS 142010
RWRBIS

NWR BROADCAST TEXT
NATIONAL WEATHER SERVICE BISMARCK ND
200 PM CST THU DEC 14 2017

NOTE: "FAIR" INDICATES FEW OR NO CLOUDS BELOW 12,000 FEET WITH NO
SIGNIFICANT WEATHER AND/OR OBSTRUCTIONS TO VISIBILITY.


CITY           SKY/WX    TMP DP  RH WIND       PRES   REMARKS
WILLISTON      CLOUDY    37  24  59 NW16      30.16F
MINOT          LGT SNOW  34  27  75 W23G29    30.08F
MINOT AFB      FLURRIES  33  27  78 W18       30.06F
BISMARCK       CLOUDY    36  24  62 NW14      30.12F
DICKINSON      CLOUDY    33  26  75 NW18      30.13F
GARRISON         N/A     34  24  67 NW16      30.09F
HETTINGER ARPT CLOUDY    35  21  56 NW22      30.17F
JAMESTOWN      CLOUDY    28  24  85 NW12      30.05F WCI  18
CARRINGTON     CLOUDY    30  25  80 NW18      30.07F WCI  18
HAZEN          CLOUDY    34  27  75 NW16      30.14F
LINTON           N/A     36  21  55 N15       30.12F
MANDAN         MOCLDY    34  23  64 NW18      30.11F
OAKES            N/A     27  27 100 NW15      30.08F WCI  15
RUGBY          CLOUDY    30  23  74 NW18      30.04F WCI  18
STANLEY        CLOUDY    32  27  80 NW20G26   30.12F
TIOGA          CLOUDY    30  28  93 NW22      30.13F WCI  17
WATFORD CITY   CLOUDY    36  25  64 NW16G23   30.15F
$$

CITY           SKY/WX    TMP DP  RH WIND       PRES   REMARKS
GRAND FORKS    PTSUNNY   22  16  78 N10       30.06F WCI  11
GRAND FORKS AF FLURRIES  23  16  74 N9        30.06S WCI  13
DEVILS LAKE    FLURRIES  28  23  81 NW18      30.03F WCI  15
FARGO          CLOUDY    24  19  81 N15       30.08R WCI  11
CANDO          FLURRIES  28  27  93 NW18      30.04F WCI  16
CAVALIER       CLOUDY    19  16  86 NW12      30.05F WCI   7
GRAFTON        MOCLDY    19  16  86 N7        30.08F WCI  10
GWINNER          N/A     27  25  93 N12       30.07F WCI  16
LANGDON        CLOUDY    23  23 100 W9        30.01F WCI  13
ROLLA          CLOUDY    27  25  93 NW18      30.01F WCI  13
WALHALLA       FAIR      21  21 100 N7        30.04F WCI  13
$$

CITY           SKY/WX    TMP DP  RH WIND       PRES   REMARKS
ABERDEEN       CLOUDY    29  28  96 N14       30.09R WCI  18
MOBRIDGE       CLOUDY    36  27  69 N16       30.10S
BUFFALO          N/A     33  28  81 NW22      30.12F
RAPID CITY     CLOUDY    34  23  64 NW30G41   30.18F
GLASGOW        SUNNY     38  23  55 W15       30.21F
SIDNEY         PTSUNNY   38  25  59 W17       30.19F
WOLF POINT     MOSUNNY   39  25  57 W14       30.21F
GLENDIVE       PTSUNNY   37  24  59 W17       30.20F
MILES CITY     MOSUNNY   39  21  48 W14       30.24F
BAKER          CLOUDY    33  28  81 NW16      30.20F
$$

CITY           SKY/WX    TMP DP  RH WIND       PRES   REMARKS
BILLINGS       MOSUNNY   46  22  38 W8        30.26F
GREAT FALLS    SUNNY     42  21  43 SW23G29   30.20F
REGINA         CLOUDY    30  25  80 NW15      30.10F WCI  19
ESTEVAN        CLOUDY    32  25  74 W17       30.09F
$$





USA.gov is the U.S. government's official web portal to all federal, state and local government web resources and services.